Location: Big Meadows
(38.5260°N, 78.4400°W)
Time: 13:21:52
(UTC-05:00)

Amateur Radio Satellites - All Passes

Search period start: 04 December 2016 12:51
Search period end: 05 December 2016 12:51
Location: Big Meadows, 38.5260°N, 78.4400°W

Satellite Date Start Highest point End Downlink Frequencies (MHz)
Time Altitude Azimuth
JUGNU 04 Dec 12:53:27 12:55:06 11° 174° (S) 12:56:44 437.505
AO-7 04 Dec 13:02:00 13:07:07 18° 51° (NE) 13:12:14 29.400- 29.500
CUBEBUG 1 04 Dec 13:08:36 13:11:50 20° 293° (WNW) 13:15:03 437.445
ITAMSAT 1 04 Dec 13:10:51 13:13:43 15° 62° (ENE) 13:16:35 435.822/435.867
VELOX 1 04 Dec 13:13:50 13:17:32 26° 291° (WNW) 13:21:15 145.980
Cosmos 2499 04 Dec 13:26:23 13:33:51 35° 275° (W) 13:40:53 435.465 / 435.565
DX 1 04 Dec 13:33:38 13:37:25 29° 291° (WNW) 13:41:12 434.975-435.025
UKube-1 04 Dec 13:44:40 13:48:25 29° 291° (WNW) 13:52:09 .
AUBIESAT-1 04 Dec 13:46:26 13:48:02 12° 94° (E) 13:49:36 437.475
RS-15 04 Dec 13:48:50 13:57:41 21° 18° (NNE) 14:06:28 29.354- 29.394
TISAT 1 04 Dec 13:54:12 13:58:27 82° 283° (WNW) 14:02:38 437.305
M-CUBED/EXP-1 PRIME 04 Dec 13:55:30 13:58:51 19° 98° (E) 14:02:07 437.505
SPROUT 04 Dec 14:03:31 14:04:56 11° 296° (WNW) 14:06:19 437.525
Gurwin Techsat 1B 04 Dec 14:04:16 14:09:14 40° 262° (W) 14:14:15 435.225
Oscar 19 04 Dec 14:27:07 14:29:04 12° 270° (W) 14:31:01 437.125/150
GONETS M04 04 Dec 14:27:30 14:32:12 16° 283° (WNW) 14:36:53
SWISSCUBE 04 Dec 14:28:12 14:32:45 44° 100° (E) 14:37:17 437.505
BEESAT 3 04 Dec 14:30:37 14:34:36 71° 58° (ENE) 14:38:33 437.485
BEESAT 04 Dec 14:32:27 14:37:01 44° 99° (E) 14:41:32 436.000
JUGNU 04 Dec 14:41:26 14:43:11 11° 185° (S) 14:44:57 437.505
ITAMSAT 1 04 Dec 14:47:24 14:52:35 68° 258° (WSW) 14:57:48 435.822/435.867
AO-7 04 Dec 14:50:21 14:58:38 82° 71° (ENE) 15:06:59 29.400- 29.500
BEESAT 2 04 Dec 14:55:37 14:59:37 59° 57° (ENE) 15:03:35 435.950
ITUPSAT 1 04 Dec 14:58:40 15:03:27 83° 102° (ESE) 15:08:13 437.325
AUBIESAT-1 04 Dec 15:18:15 15:22:51 65° 290° (WNW) 15:27:13 437.475
M-CUBED/EXP-1 PRIME 04 Dec 15:29:02 15:33:26 41° 294° (WNW) 15:37:42 437.505
O/OREOS (USA 219) 04 Dec 15:31:40 15:35:10 22° 102° (ESE) 15:38:39 437.305
BRITE-PL 04 Dec 15:36:19 15:38:53 16° 64° (ENE) 15:41:32 437.365/2234.400
MOZHAYETS 4 04 Dec 15:54:57 15:59:32 82° 103° (ESE) 16:04:05
CUBESAT XI-V 04 Dec 15:55:47 15:56:35 10° 90° (E) 15:57:22 437.345
RS-15 04 Dec 16:02:10 16:14:12 52° 48° (NE) 16:25:49 29.354- 29.394
SWISSCUBE 04 Dec 16:06:57 16:10:10 18° 295° (WNW) 16:13:23 437.505
BEESAT 04 Dec 16:11:10 16:14:26 19° 295° (WNW) 16:17:41 436.000
CUTE-I 04 Dec 16:11:54 16:13:46 12° 59° (ENE) 16:15:38 437.470
SRMSAT 04 Dec 16:16:27 16:18:30 12° 180° (S) 16:20:34 437.500
Cosmos 2491 04 Dec 16:33:41 16:38:08 15° 61° (ENE) 16:42:34 435.465 / 435.565
Cubesat XI-IV 04 Dec 16:35:03 16:38:50 20° 64° (ENE) 16:42:36 437.490
BEESAT 2 04 Dec 16:35:52 16:36:52 11° 252° (WSW) 16:37:52 435.950
NOAA 15 04 Dec 16:38:09 16:42:11 23° 65° (ENE) 16:46:14 137.62
KKS-1 04 Dec 16:38:28 16:42:58 82° 284° (WNW) 16:47:26 437.445
ITUPSAT 1 04 Dec 16:39:43 16:40:34 10° 299° (WNW) 16:41:25 437.325
AO-7 04 Dec 16:46:43 16:52:12 19° 268° (W) 16:57:45 29.400- 29.500
HORYU 2 04 Dec 16:49:18 16:53:47 88° 73° (ENE) 16:58:18 437.375
STARS 04 Dec 16:49:32 16:53:54 59° 101° (E) 16:58:15 437.465
ISS 04 Dec 16:51:11 16:54:27 80° 142° (SE) 16:57:46 145.825
GOMX 1 04 Dec 16:57:23 17:01:40 48° 73° (ENE) 17:06:18 467.674
LilacSat-2 04 Dec 17:01:48 17:05:05 27° 71° (ENE) 17:08:21 437.200
AIST 2 04 Dec 17:06:50 17:10:49 37° 54° (NE) 17:14:45 435.215
O/OREOS (USA 219) 04 Dec 17:10:13 17:14:20 33° 297° (WNW) 17:18:28 437.305
BRITE-PL 04 Dec 17:12:57 17:16:57 42° 262° (W) 17:21:13 437.365/2234.400
HO-68 04 Dec 17:14:46 17:17:49 13° 53° (NE) 17:20:53 435.675
DOVE 4 04 Dec 17:16:59 17:21:12 33° 69° (ENE) 17:25:39 437.250
CUBESAT XI-V 04 Dec 17:29:44 17:34:23 70° 284° (WNW) 17:39:01 437.345
NOAA 18 04 Dec 17:41:59 17:47:20 54° 71° (ENE) 17:52:45 137.9125
CUTE-I 04 Dec 17:47:38 17:53:00 89° 247° (WSW) 17:58:25 437.470
CANX-2 04 Dec 18:08:11 18:10:56 17° 67° (ENE) 18:13:42 2200.000
Cubesat XI-IV 04 Dec 18:13:13 18:18:27 52° 260° (W) 18:23:43 437.490
RS-15 04 Dec 18:15:06 18:26:41 50° 251° (WSW) 18:37:53 29.354- 29.394
NOAA 15 04 Dec 18:16:45 18:21:41 42° 261° (W) 18:26:38 137.62
Cosmos 2491 04 Dec 18:27:43 18:36:29 79° 83° (E) 18:45:11 435.465 / 435.565
STARS 04 Dec 18:27:48 18:29:43 13° 297° (WNW) 18:31:38 437.465
ISS 04 Dec 18:29:03 18:31:19 17° 337° (NNW) 18:33:35 145.825
LilacSat-2 04 Dec 18:36:34 18:39:20 19° 266° (W) 18:42:07 437.200
SEEDS 04 Dec 18:36:50 18:39:56 21° 68° (ENE) 18:43:02 437.485
GOMX 1 04 Dec 18:37:34 18:40:08 15° 270° (W) 18:42:47 467.674
AIST 2 04 Dec 18:45:59 18:49:00 19° 250° (WSW) 18:52:00 435.215
CINEMA 3 04 Dec 18:47:19 18:52:10 73° 75° (ENE) 18:57:11 145.822/145.860
STRAND 1 04 Dec 18:48:13 18:52:25 25° 95° (E) 18:56:36 437.568
COMPASS 1 04 Dec 18:50:42 18:53:40 19° 68° (ENE) 18:56:38 437.405
YUBILEINY 04 Dec 18:53:37 19:01:55 53° 90° (E) 19:10:18 435.215
AIST 1 04 Dec 18:54:34 18:56:00 12° 84° (E) 18:57:28
DOVE 4 04 Dec 18:55:05 18:58:54 24° 267° (W) 19:02:56 437.250
HO-68 04 Dec 18:57:11 19:04:17 72° 71° (ENE) 19:11:26 435.675
SO-50 04 Dec 19:05:21 19:06:25 11° 107° (ESE) 19:07:28 436.795
Cosmos 2504 04 Dec 19:10:23 19:17:25 32° 84° (E) 19:24:47 435.465 / 435.565
ZACube-1 04 Dec 19:14:21 19:16:42 14° 65° (ENE) 19:19:02 437.345
CUBEBUG 2 04 Dec 19:17:14 19:21:37 38° 72° (ENE) 19:26:00 437.445
FUNcube-1 04 Dec 19:22:39 19:25:21 16° 66° (ENE) 19:28:02 145.935
NOAA 18 04 Dec 19:24:29 19:28:17 19° 267° (W) 19:32:08 137.9125
CUTE 1.7 + AOD 2 04 Dec 19:24:33 19:28:45 72° 259° (W) 19:32:58 437.475
CANX-2 04 Dec 19:42:35 19:46:30 37° 263° (W) 19:50:25 2200.000
PCSat 04 Dec 19:50:25 19:54:04 18° 46° (NE) 19:57:42 145.827
Oscar 11 04 Dec 19:54:13 19:58:00 31° 71° (ENE) 20:01:49 145.826/435.025
AAUSAT CUBESAT 2 04 Dec 19:56:13 20:00:19 89° 81° (E) 20:04:26 437.432
UWE-3 04 Dec 20:02:56 20:07:36 77° 76° (ENE) 20:12:14 435.000/436.395/437.385
SEEDS 04 Dec 20:11:47 20:15:26 29° 263° (W) 20:19:06 437.485
COMPASS 1 04 Dec 20:25:20 20:28:59 31° 263° (W) 20:32:40 437.405
Cosmos 2491 04 Dec 20:26:33 20:32:13 20° 281° (W) 20:37:54 435.465 / 435.565
STRAND 1 04 Dec 20:27:02 20:31:37 35° 291° (WNW) 20:36:11 437.568
CINEMA 3 04 Dec 20:28:16 20:29:48 11° 272° (W) 20:31:21 145.822/145.860
AIST 1 04 Dec 20:28:53 20:33:03 51° 280° (W) 20:37:18
SO-50 04 Dec 20:41:26 20:46:14 79° 302° (WNW) 20:50:58 436.795
HO-68 04 Dec 20:47:44 20:52:35 19° 268° (W) 20:57:29 435.675
ZACube-1 04 Dec 20:48:00 20:52:30 56° 260° (W) 20:56:58 437.345
YUBILEINY 04 Dec 20:51:28 20:59:00 32° 289° (WNW) 21:06:37 435.215
CUBEBUG 2 04 Dec 20:54:46 20:58:18 21° 266° (W) 21:01:51 437.445
HUMSAT D 04 Dec 20:55:11 20:58:47 27° 70° (ENE) 21:02:21 437.325/437.525
FUNcube-1 04 Dec 20:56:46 21:01:10 48° 261° (W) 21:05:33 145.935
CUSAT 1 04 Dec 20:59:34 21:03:10 63° 262° (W) 21:07:53 437.405
Cosmos 2504 04 Dec 21:02:18 21:10:18 52° 283° (WNW) 21:18:51 435.465 / 435.565
PRISM 04 Dec 21:05:30 21:09:29 44° 100° (E) 21:13:28 437.425
DELFI C3 04 Dec 21:09:02 21:12:57 80° 77° (ENE) 21:16:52 145.870
UNISAT 6 04 Dec 21:12:13 21:12:29 10° 89° (E) 21:12:44 437.425
DANDE 04 Dec 21:30:25 21:33:12 57° 81° (E) 21:36:32 436.750
Oscar 11 04 Dec 21:30:54 21:34:09 21° 266° (W) 21:37:24 145.826/435.025
PCSat 04 Dec 21:32:36 21:38:02 72° 244° (WSW) 21:43:24 145.827
TIGRISAT 04 Dec 21:39:59 21:43:19 21° 94° (E) 21:46:35 435.000
ANTELSAT 04 Dec 21:40:53 21:44:23 23° 94° (E) 21:47:48 437.575/2403.000
ESTCUBE 1 04 Dec 21:44:27 21:46:56 15° 65° (ENE) 21:49:26 437.505/2401.250
ISS 04 Dec 21:44:57 21:46:39 13° 18° (NNE) 21:48:22 145.825
SO-50 04 Dec 22:25:35 22:27:26 12° 320° (NW) 22:29:17 436.795
CUBEBUG 1 04 Dec 22:26:32 22:30:03 25° 69° (ENE) 22:33:37 437.445
HUMSAT D 04 Dec 22:31:00 22:34:20 22° 265° (W) 22:37:39 437.325/437.525
VELOX 1 04 Dec 22:33:42 22:36:57 21° 67° (ENE) 22:40:13 145.980
PRISM 04 Dec 22:42:04 22:44:24 15° 295° (WNW) 22:46:42 437.425
UNISAT 6 04 Dec 22:45:16 22:49:38 63° 285° (WNW) 22:53:53 437.425
POPSAT HIP 1 04 Dec 22:48:09 22:49:57 12° 91° (E) 22:51:44 437.405
JAS-2 04 Dec 22:48:15 22:52:22 23° 95° (E) 22:56:37 435.910
DX 1 04 Dec 22:52:29 22:55:22 18° 66° (ENE) 22:58:16 434.975-435.025
50 SAT 04 Dec 22:58:09 23:01:05 25° 71° (ENE) 23:04:01 437.505
UKube-1 04 Dec 23:02:44 23:05:30 17° 66° (ENE) 23:08:16 .
TIGRISAT 04 Dec 23:16:09 23:20:02 31° 290° (WNW) 23:23:49 435.000
SPROUT 04 Dec 23:17:08 23:21:06 38° 72° (ENE) 23:25:06 437.525
ANTELSAT 04 Dec 23:17:18 23:21:05 28° 290° (WNW) 23:24:46 437.575/2403.000
ESTCUBE 1 04 Dec 23:18:58 23:23:18 50° 260° (W) 23:27:40 437.505/2401.250
ISS 04 Dec 23:20:27 23:23:44 58° 37° (NE) 23:26:59 145.825
AISAT 04 Dec 23:31:36 23:36:01 85° 257° (WSW) 23:40:29 437.250
GONETS M04 04 Dec 23:33:36 23:39:36 21° 80° (E) 23:45:34
BUGSAT 1 04 Dec 23:34:15 23:36:18 13° 92° (E) 23:38:21 437.445
NANOSAT C BR1 04 Dec 23:41:56 23:46:05 51° 100° (E) 23:50:10 145.865
QB50P2 04 Dec 23:46:16 23:50:30 68° 101° (E) 23:54:42 145.880/145.840
POLYITAN 1 04 Dec 23:46:51 23:51:04 65° 101° (E) 23:55:15 437.675
QB50P1 05 Dec 00:00:22 00:04:38 87° 284° (WNW) 00:08:51 145.935-145.965
CUBEBUG 1 05 Dec 00:02:31 00:06:13 27° 264° (W) 00:09:56 437.445
DUCHIFAT 1 05 Dec 00:04:52 00:09:06 89° 100° (E) 00:13:18 145.980
Cosmos 2499 05 Dec 00:06:30 00:14:11 40° 86° (E) 00:22:11 435.465 / 435.565
VELOX 1 05 Dec 00:09:10 00:13:10 34° 262° (W) 00:17:12 145.980
POPSAT HIP 1 05 Dec 00:21:53 00:25:59 49° 286° (WNW) 00:30:03 437.405
DX 1 05 Dec 00:27:10 00:31:14 39° 261° (W) 00:35:20 434.975-435.025
PHONESAT 2.4 05 Dec 00:28:25 00:30:32 21° 152° (SSE) 00:32:41 2401.200-2431.200
AUBIESAT-1 05 Dec 00:30:54 00:32:25 12° 57° (ENE) 00:33:57 437.475
50 SAT 05 Dec 00:32:09 00:34:22 16° 266° (W) 00:36:37 437.505
JAS-2 05 Dec 00:32:51 00:37:35 37° 290° (WNW) 00:42:29 435.910
UKube-1 05 Dec 00:37:08 00:41:11 40° 261° (W) 00:45:17 .
M-CUBED/EXP-1 PRIME 05 Dec 00:40:24 00:43:13 18° 60° (ENE) 00:46:10 437.505
TISAT 1 05 Dec 00:43:54 00:48:04 59° 74° (ENE) 00:52:15 437.305
SPROUT 05 Dec 00:54:22 00:57:09 17° 267° (W) 00:59:58 437.525
Oscar 19 05 Dec 00:57:35 01:02:01 28° 96° (E) 01:06:26 437.125/150
ISS 05 Dec 00:58:12 00:59:52 13° 232° (SW) 01:01:31 145.825
BUGSAT 1 05 Dec 01:07:53 01:11:54 45° 287° (WNW) 01:15:50 437.445
NANOSAT C BR1 05 Dec 01:19:21 01:21:19 13° 296° (WNW) 01:23:17 145.865
QB50P2 05 Dec 01:25:15 01:25:41 10° 297° (WNW) 01:26:08 145.880/145.840
POLYITAN 1 05 Dec 01:25:21 01:26:17 11° 297° (WNW) 01:27:14 437.675
GONETS M04 05 Dec 01:26:42 01:35:26 75° 279° (W) 01:44:09
SWISSCUBE 05 Dec 01:33:05 01:37:36 44° 72° (ENE) 01:42:08 437.505
BEESAT 05 Dec 01:37:17 01:41:48 44° 71° (ENE) 01:46:19 436.000
O/OREOS (USA 219) 05 Dec 01:42:11 01:46:15 33° 63° (ENE) 01:50:16 437.305
Cosmos 2499 05 Dec 01:59:10 02:07:09 44° 285° (WNW) 02:15:31 435.465 / 435.565
AUBIESAT-1 05 Dec 02:02:08 02:06:08 67° 253° (WSW) 02:10:29 437.475
PHONESAT 2.4 05 Dec 02:02:57 02:05:37 81° 350° (N) 02:08:16 2401.200-2431.200
ITUPSAT 1 05 Dec 02:03:42 02:08:30 81° 75° (ENE) 02:13:18 437.325
M-CUBED/EXP-1 PRIME 05 Dec 02:13:34 02:17:19 38° 258° (WSW) 02:21:22 437.505
Gurwin Techsat 1B 05 Dec 02:21:26 02:26:48 90° 130° (SE) 02:32:06 435.225
TISAT 1 05 Dec 02:23:13 02:24:02 10° 269° (W) 02:24:52 437.305
AO-85 05 Dec 02:24:33 02:29:33 88° 119° (ESE) 02:34:12 145.980
Oscar 19 05 Dec 02:36:42 02:41:18 33° 291° (WNW) 02:45:54 437.125/150
AO-7 05 Dec 02:54:19 03:01:23 29° 96° (E) 03:08:23 29.400- 29.500
MOZHAYETS 4 05 Dec 02:55:02 02:59:35 65° 75° (ENE) 03:04:08
ITAMSAT 1 05 Dec 03:01:45 03:06:46 48° 100° (E) 03:11:44 435.822/435.867
SWISSCUBE 05 Dec 03:12:23 03:15:34 18° 267° (W) 03:18:46 437.505
BEESAT 05 Dec 03:16:31 03:19:45 18° 267° (W) 03:22:59 436.000
O/OREOS (USA 219) 05 Dec 03:22:03 03:25:24 21° 259° (WSW) 03:28:44 437.305
GONETS M04 05 Dec 03:29:55 03:33:51 14° 299° (WNW) 03:37:49
KKS-1 05 Dec 03:34:40 03:39:07 76° 75° (ENE) 03:43:36 437.445
PHONESAT 2.4 05 Dec 03:38:22 03:40:59 52° 3° (N) 03:43:36 2401.200-2431.200
STARS 05 Dec 03:44:29 03:48:40 43° 72° (ENE) 03:52:52 437.465
Gurwin Techsat 1B 05 Dec 04:04:16 04:05:55 11° 301° (WNW) 04:07:35 435.225
AO-85 05 Dec 04:08:13 04:10:30 13° 316° (NW) 04:12:44 145.980
BEESAT 3 05 Dec 04:20:45 04:23:09 16° 110° (ESE) 04:25:34 437.485
CUBESAT XI-V 05 Dec 04:31:16 04:35:51 86° 261° (W) 04:40:28 437.345
MOZHAYETS 4 05 Dec 04:35:52 04:37:08 11° 270° (W) 04:38:25
ITAMSAT 1 05 Dec 04:42:09 04:45:51 20° 296° (WNW) 04:49:32 435.822/435.867
HORYU 2 05 Dec 04:42:39 04:45:42 18° 94° (E) 04:48:43 437.375
AO-7 05 Dec 04:46:19 04:54:29 59° 293° (WNW) 05:02:38 29.400- 29.500
BEESAT 2 05 Dec 04:47:35 04:49:39 14° 109° (ESE) 04:51:44 435.950
GOMX 1 05 Dec 05:00:47 05:04:46 20° 92° (E) 05:08:43 467.674
YUBILEINY 05 Dec 05:06:07 05:12:55 24° 67° (ENE) 05:19:40 435.215
PHONESAT 2.4 05 Dec 05:13:40 05:16:17 59° 199° (SSW) 05:18:54 2401.200-2431.200
SO-50 05 Dec 05:14:20 05:18:49 60° 56° (ENE) 05:23:13 436.795
BRITE-PL 05 Dec 05:17:27 05:22:51 66° 101° (E) 05:28:29 437.365/2234.400
DOVE 4 05 Dec 05:19:22 05:21:07 12° 88° (E) 05:22:50 437.250
STARS 05 Dec 05:22:30 05:25:11 16° 267° (W) 05:27:54 437.465
Cosmos 2491 05 Dec 05:34:29 05:39:41 17° 78° (ENE) 05:44:50 435.465 / 435.565
BEESAT 3 05 Dec 05:56:47 06:00:26 38° 306° (NW) 06:04:09 437.485
STRAND 1 05 Dec 06:02:35 06:07:07 32° 69° (ENE) 06:11:39 437.568
NOAA 18 05 Dec 06:06:04 06:10:35 25° 95° (E) 06:15:04 137.9125
CUTE-I 05 Dec 06:06:22 06:11:24 41° 99° (E) 06:16:22 437.470
LilacSat-2 05 Dec 06:10:01 06:13:42 48° 99° (E) 06:17:19 437.200
HORYU 2 05 Dec 06:18:16 06:22:21 37° 289° (WNW) 06:26:25 437.375
BEESAT 2 05 Dec 06:23:15 06:27:02 44° 305° (NW) 06:30:52 435.950
RS-15 05 Dec 06:24:39 06:34:34 34° 104° (ESE) 06:44:50 29.354- 29.394
HO-68 05 Dec 06:29:18 06:32:32 13° 89° (E) 06:35:45 435.675
Cubesat XI-IV 05 Dec 06:31:44 06:37:05 71° 102° (ESE) 06:42:23 437.490
NOAA 15 05 Dec 06:32:49 06:38:07 82° 104° (ESE) 06:43:24 137.62
AIST 1 05 Dec 06:37:21 06:41:19 32° 77° (ENE) 06:45:15
GOMX 1 05 Dec 06:37:45 06:43:01 51° 288° (WNW) 06:48:19 467.674
AO-7 05 Dec 06:42:25 06:45:29 12° 314° (NW) 06:48:34 29.400- 29.500
CINEMA 3 05 Dec 06:44:44 06:48:15 20° 92° (E) 06:51:39 145.822/145.860
PHONESAT 2.4 05 Dec 06:50:27 06:51:09 11° 213° (SSW) 06:51:50 2401.200-2431.200
DOVE 4 05 Dec 06:54:02 06:59:21 79° 285° (WNW) 07:04:30 437.250
Cosmos 2504 05 Dec 06:56:36 07:05:17 58° 78° (ENE) 07:13:27 435.465 / 435.565
SO-50 05 Dec 06:56:42 06:58:43 13° 252° (WSW) 07:00:44 436.795
BRITE-PL 05 Dec 06:57:26 07:00:48 17° 295° (WNW) 07:04:15 437.365/2234.400
YUBILEINY 05 Dec 07:01:43 07:10:29 71° 267° (W) 07:19:14 435.215
AIST 2 05 Dec 07:06:28 07:06:54 10° 107° (ESE) 07:07:21 435.215
CUTE 1.7 + AOD 2 05 Dec 07:11:28 07:14:41 21° 94° (E) 07:17:52 437.475
Cosmos 2491 05 Dec 07:26:27 07:35:16 87° 276° (W) 07:44:05 435.465 / 435.565
CANX-2 05 Dec 07:28:39 07:32:36 38° 98° (E) 07:36:33 2200.000
AAUSAT CUBESAT 2 05 Dec 07:41:01 07:43:27 15° 93° (E) 07:45:51 437.432
STRAND 1 05 Dec 07:41:53 07:46:15 28° 264° (W) 07:50:38 437.568
NOAA 18 05 Dec 07:46:11 07:51:20 40° 291° (WNW) 07:56:26 137.9125
LilacSat-2 05 Dec 07:46:32 07:47:31 11° 295° (WNW) 07:48:31 437.200
CUTE-I 05 Dec 07:46:59 07:51:10 24° 294° (WNW) 07:55:21 437.470
PRISM 05 Dec 07:53:43 07:57:05 26° 69° (ENE) 08:00:29 437.425
UWE-3 05 Dec 07:55:33 07:58:14 16° 92° (E) 08:00:51 435.000/436.395/437.385
SEEDS 05 Dec 07:56:19 08:00:21 46° 99° (E) 08:04:23 437.485
COMPASS 1 05 Dec 08:08:52 08:12:50 42° 99° (E) 08:16:47 437.405
Cubesat XI-IV 05 Dec 08:13:40 08:16:31 15° 299° (WNW) 08:19:22 437.490
HO-68 05 Dec 08:13:53 08:21:08 86° 105° (ESE) 08:28:21 435.675
NOAA 15 05 Dec 08:14:58 08:17:09 13° 300° (WNW) 08:19:21 137.62
AIST 1 05 Dec 08:15:30 08:18:39 19° 273° (W) 08:21:46
CINEMA 3 05 Dec 08:21:03 08:25:31 38° 289° (WNW) 08:29:47 145.822/145.860
RS-15 05 Dec 08:34:24 08:46:06 68° 305° (NW) 08:58:25 29.354- 29.394
TIGRISAT 05 Dec 08:37:22 08:40:32 18° 66° (ENE) 08:43:40 435.000
ZACube-1 05 Dec 08:38:14 08:41:57 29° 96° (E) 08:45:34 437.345
ANTELSAT 05 Dec 08:38:21 08:41:41 20° 67° (ENE) 08:45:00 437.575/2403.000
AIST 2 05 Dec 08:40:43 08:44:47 64° 303° (WNW) 08:48:55 435.215
CUBEBUG 2 05 Dec 08:45:53 08:50:18 80° 286° (WNW) 08:54:34 437.445
FUNcube-1 05 Dec 08:46:27 08:50:17 33° 97° (E) 08:54:02 145.935
CUTE 1.7 + AOD 2 05 Dec 08:46:51 08:50:30 29° 289° (WNW) 08:54:08 437.475
DELFI C3 05 Dec 08:49:59 08:51:06 11° 91° (E) 08:52:14 145.870
Cosmos 2504 05 Dec 08:50:55 08:58:02 29° 278° (W) 09:04:52 435.465 / 435.565
YUBILEINY 05 Dec 09:03:11 09:05:33 11° 286° (WNW) 09:07:56 435.215
JAS-2 05 Dec 09:03:35 09:04:23 10° 59° (ENE) 09:05:11 435.910
CANX-2 05 Dec 09:05:28 09:08:08 17° 293° (WNW) 09:10:48 2200.000
AAUSAT CUBESAT 2 05 Dec 09:15:11 09:19:03 39° 287° (WNW) 09:22:55 437.432
Oscar 11 05 Dec 09:18:05 09:22:25 79° 102° (ESE) 09:26:42 145.826/435.025
Cosmos 2491 05 Dec 09:28:12 09:33:24 17° 297° (WNW) 09:38:39 435.465 / 435.565
PRISM 05 Dec 09:29:07 09:32:19 22° 264° (W) 09:35:33 437.425
UWE-3 05 Dec 09:30:51 09:34:51 38° 288° (WNW) 09:38:45 435.000/436.395/437.385
SEEDS 05 Dec 09:33:28 09:35:37 14° 294° (WNW) 09:37:47 437.485
UNISAT 6 05 Dec 09:41:45 09:46:27 89° 246° (WSW) 09:51:09 437.425
COMPASS 1 05 Dec 09:45:39 09:48:00 15° 294° (WNW) 09:50:21 437.405
CUSAT 1 05 Dec 10:02:21 10:05:32 38° 280° (W) 10:08:13 437.405
Cosmos 2499 05 Dec 10:02:30 10:05:40 12° 58° (ENE) 10:08:46 435.465 / 435.565
HO-68 05 Dec 10:03:23 10:07:56 18° 304° (WNW) 10:12:28 435.675
TIGRISAT 05 Dec 10:12:22 10:16:51 44° 261° (W) 10:21:20 435.000
ANTELSAT 05 Dec 10:13:40 10:18:04 41° 262° (W) 10:22:29 437.575/2403.000
HUMSAT D 05 Dec 10:14:36 10:18:39 62° 101° (E) 10:22:40 437.325/437.525
ZACube-1 05 Dec 10:14:51 10:18:02 21° 292° (WNW) 10:21:10 437.345
DELFI C3 05 Dec 10:22:20 10:26:10 49° 286° (WNW) 10:30:01 145.870
FUNcube-1 05 Dec 10:23:20 10:26:16 18° 293° (WNW) 10:29:09 145.935
PCSat 05 Dec 10:31:28 10:35:01 18° 105° (ESE) 10:38:35 145.827
NANOSAT C BR1 05 Dec 10:32:33 10:36:19 31° 71° (ENE) 10:40:06 145.865
DANDE 05 Dec 10:36:51 10:41:54 80° 277° (W) 10:45:41 436.750
QB50P2 05 Dec 10:37:11 10:41:12 41° 72° (ENE) 10:45:14 145.880/145.840
POLYITAN 1 05 Dec 10:37:46 10:41:45 39° 72° (ENE) 10:45:46 437.675
JAS-2 05 Dec 10:42:03 10:48:41 74° 75° (ENE) 10:54:33 435.910
QB50P1 05 Dec 10:50:54 10:55:05 55° 74° (ENE) 10:59:17 145.935-145.965
RS-15 05 Dec 10:52:04 11:01:32 25° 334° (NNW) 11:11:14 29.354- 29.394
DUCHIFAT 1 05 Dec 10:54:50 10:58:57 52° 74° (ENE) 11:03:07 145.980
AO-85 05 Dec 10:57:56 11:01:43 43° 55° (NE) 11:05:25 145.980
POPSAT HIP 1 05 Dec 11:12:13 11:16:30 84° 255° (WSW) 11:20:49 437.405
ESTCUBE 1 05 Dec 11:12:46 11:16:56 36° 98° (E) 11:21:05 437.505/2401.250
AISAT 05 Dec 11:23:54 11:27:12 20° 94° (E) 11:30:30 437.250
GONETS M04 05 Dec 11:38:48 11:47:15 52° 77° (ENE) 11:55:42
CUBEBUG 1 05 Dec 11:51:32 11:55:57 60° 101° (E) 12:00:19 437.445
Cosmos 2499 05 Dec 11:52:04 12:00:40 69° 80° (E) 12:08:37 435.465 / 435.565
HUMSAT D 05 Dec 11:53:16 11:53:43 10° 296° (WNW) 11:54:08 437.325/437.525
BUGSAT 1 05 Dec 11:55:20 11:59:32 83° 255° (WSW) 12:03:50 437.445
50 SAT 05 Dec 11:58:13 12:01:31 35° 98° (E) 12:04:49 437.505
VELOX 1 05 Dec 12:00:04 12:04:24 48° 100° (E) 12:08:42 145.980
Gurwin Techsat 1B 05 Dec 12:03:59 12:07:02 16° 62° (ENE) 12:10:04 435.225
NANOSAT C BR1 05 Dec 12:08:54 12:12:03 20° 266° (W) 12:15:14 145.865
PCSat 05 Dec 12:12:35 12:17:54 57° 301° (WNW) 12:23:16 145.827
Oscar 19 05 Dec 12:13:00 12:17:36 35° 69° (ENE) 12:22:15 437.125/150
QB50P2 05 Dec 12:14:35 12:17:09 15° 267° (W) 12:19:43 145.880/145.840
POLYITAN 1 05 Dec 12:14:59 12:17:42 16° 267° (W) 12:20:24 437.675
DX 1 05 Dec 12:16:28 12:20:34 37° 98° (E) 12:24:38 434.975-435.025
UKube-1 05 Dec 12:25:25 12:29:24 34° 98° (E) 12:33:20 .
QB50P1 05 Dec 12:29:47 12:31:09 11° 269° (W) 12:32:33 145.935-145.965
JAS-2 05 Dec 12:30:22 12:34:04 16° 267° (W) 12:37:33 435.910
DUCHIFAT 1 05 Dec 12:33:16 12:34:55 12° 269° (W) 12:36:35 145.980
JUGNU 05 Dec 12:38:03 12:39:56 11° 176° (S) 12:41:49 437.505
SPROUT 05 Dec 12:39:41 12:44:00 89° 291° (WNW) 12:48:17 437.525
AO-85 05 Dec 12:39:49 12:41:40 13° 251° (WSW) 12:43:32 145.980
